Location: Ciserano
(45.5833°N, 9.6000°E)
Time: 08:05:12
(UTC+00:00)

Cosmos 1295 Rocket - Pass Details

Date: 22 April 2021
Orbit: 944 x 993 km, 82.9° (Epoch: 13 May)

Event Time Altitude Azimuth Distance (km) Brightness Sun altitude
Rises 00:44:31 0° 343° (NNW) 3,681 8.2 -29.2°
Reaches altitude 10° 00:47:15 10° 334° (NNW) 2,737 7.3 -29.0°
Enters shadow 00:52:00 32° 287° (WNW) 1,624 5.5 -28.6°
